Location: Tamazert
(32.6352°N, 5.2072°W)
Time: 04:32:37
(UTC+00:00)

Vanguard 1 Rocket - Pass Details

Date: 05 October 2022
Orbit: 650 x 4225 km, 34.3° (Epoch: 05 December)

Event Time Altitude Azimuth Distance (km) Brightness Sun altitude
Rises 23:36:21 0° 283° (WNW) 6,785 12.0 -61.3°
Reaches altitude 10° 23:41:40 10° 283° (WNW) 5,188 11.3 -61.7°
Enters shadow 23:44:24 17° 283° (WNW) 4,324 10.8 -61.8°
Maximum altitude 23:54:45 79° 199° (SSW) 1,467 - -62.2°
Drops below altitude 10° 00:01:20 10° 114° (ESE) 2,749 - -62.3°
Sets 00:03:20 0° 113° (ESE) 3,477 - -62.4°
